Skip Page Navigation
NASA JPL Caltech
NASA Logo - Jet Propulsion Laboratory + View the NASA Portal
+ Near-Earth Object (NEO) Program
Search JPL
JPL Home Earth Solar System Stars & Galaxies Technology
JPL Solar System Dynamics
BODIES ORBITS EPHEMERIDES TOOLS PHYSICAL DATA DISCOVERY FAQ SITE MAP
JPL Small-Body Database Browser
Search: [ help ]  
48588 Raschroder (1994 RP11)
Classification: Main-belt Asteroid          SPK-ID: 2048588
Ephemeris | Orbit Diagram | Orbital Elements | Physical Parameters | Discovery Circumstances | Close-Approach Data ]

[ show orbit diagram ]
Orbital Elements at Epoch 2457400.5 (2016-Jan-13.0) TDB
Reference: JPL 10 (heliocentric ecliptic J2000)
 Element Value Uncertainty (1-sigma)   Units 
e .1471408075006025 8.0858e-08  
a 2.387161343045589 2.5065e-08 au
q 2.035912495395638 1.8819e-07 au
i 5.728250013842381 6.0913e-06 deg
node 251.5056622940352 7.6986e-05 deg
peri 109.2764293334063 8.0403e-05 deg
M 276.05682716838 3.1557e-05 deg
tp 2457714.626059206876
(2016-Nov-22.12605921)
0.00012199 JED
period 1347.165915938287
3.69
2.1218e-05
5.809e-08
d
yr
n .267227663453216 4.2088e-09 deg/d
Q 2.73841019069554 2.8753e-08 au
  Orbit Determination Parameters
   # obs. used (total)      541  
   data-arc span      8584 days (23.50 yr)  
   first obs. used      1991-12-13  
   last obs. used      2015-06-14  
   planetary ephem.      DE431  
   SB-pert. ephem.      SB431-BIG16  
   condition code      0  
   fit RMS      .55782  
   data source      ORB  
   producer      Otto Matic  
   solution date      2015-Jul-06 13:16:23  

Additional Information
 Earth MOID = 1.03996 au 
 Jupiter MOID = 2.73549 au 
 T_jup = 3.513 
[ show covariance matrix ]

Ephemeris | Orbit Diagram | Orbital Elements | Physical Parameters | Discovery Circumstances | Close-Approach Data ]

Physical Parameter Table
Parameter Symbol Value Units Sigma Reference Notes
absolute magnitude H 15.4 mag n/a MPO337646  

48588 Raschröder           Discovered 1994 Sept. 2 by F. Börngen at Tautenburg.
German Rudolf Alexander Schröder (1878-1962) was an architect, but he became known as a poet, essayist and translator. The complete edition of his work contains eight volumes, including numerous collections of verse. He revived the Protestant chorale and is cofounder of the "Insel-Verlag".
NOTE: some special characters may not display properly (any characters within {} are an attempt to place the proper accent above a character)
Reference: 20030501/MPCPages.arcLast Updated: 2003-10-02

[ show close-approach data ]
Alternate Designations
 1994 RP11 = 1998 WO21 
Ephemeris | Orbit Diagram | Orbital Elements | Physical Parameters | Discovery Circumstances | Close-Approach Data ]
ABOUT SSD CREDITS/AWARDS PRIVACY/COPYRIGHT GLOSSARY LINKS
FirstGov 2016-Feb-11 15:06 UT
(server date/time)  
NASA Home Page
Site Manager:   Ryan S. Park
Webmaster  Alan B. Chamberlin